Location: Newark
(44.0160°N, 116.9215°W)
Time: 20:31:41
(UTC+00:00)

Envisat - Pass Details

Date: 21 November 2019
Orbit: 764 x 766 km, 98.1° (Epoch: 15 December)

Event Time Altitude Azimuth Distance (km) Brightness Sun altitude
Rises 00:59:31 0° 142° (SE) 3,221 6.0 -7.8°
Reaches altitude 10° 01:01:57 10° 135° (SE) 2,299 5.2 -8.2°
Maximum altitude 01:06:36 38° 68° (ENE) 1,168 3.5 -9.0°
Drops below altitude 10° 01:11:15 10° 2° (N) 2,313 5.3 -9.8°
Sets 01:13:42 0° 355° (N) 3,243 6.1 -10.2°
